World > North America > United States > Oregon > Oak Lodge  

Oak Lodge, OR Hourly Weather Updates

Feedback E-mail the Weather

Quick Clicks

Oak Lodge, OR Weather Maps

°F °C°F °C
Oak Lodge Weather Map
UTC Time: 5/26/2024, 02:55
Your Time:

Oak Lodge, OR Regional Weather

Expires:202405260300;;872445
ASUS46 KPQR 260210
RWROR 

OREGON REGIONAL WEATHER ROUNDUP
NATIONAL WEATHER SERVICE PORTLAND OR
700 PM PDT SAT MAY 25 2024

NOTE: "FAIR" INDICATES FEW OR NO CLOUDS BELOW 12,000 FEET WITH
NO SIGNIFICANT WEATHER AND/OR OBSTRUCTIONS TO VISIBILITY.


ORZ001>013-260300-
NORTHWEST OREGON

  
CITY           SKY/WX    TMP DP  RH WIND       PRES   REMARKS
ASTORIA        CLOUDY    53  48  83 SW6       30.10S                  
TILLAMOOK      CLOUDY    54  54 100 W7        30.13S                  
NEWPORT        SUNNY     54  43  66 NW6       30.15F                  
FLORENCE       SUNNY     55  48  76 N12       30.12F                  
PORTLAND       PTSUNNY   60  40  47 W8        30.08S                  
VANCOUVER WA   CLOUDY    58  41  53 NW8       30.10R                  
SCAPPOOSE      CLOUDY   N/A N/A N/A NW8       30.08S                  
HILLSBORO      CLOUDY    56  43  61 NW8       30.08S                  
AURORA         PTSUNNY   57  41  55 W7        30.10S                  
MCMINNVILLE    PTSUNNY   56  44  64 W8        30.09S                  
SALEM          PTSUNNY   60  41  49 NW8       30.08S                  
CORVALLIS      PTSUNNY   59  43  55 NW10      30.09F                  
EUGENE         PTSUNNY   61  44  53 NW7       30.08S                  
CRESWELL       PTSUNNY   59  45  58 CALM      30.07S                  
$$


SKY/WX - Weather  TMP - Temperature  DP - Dew Point  RH - Humidity
WIND - Wind Direction/Speed PRES - Barometric Pressure VSB - Visibility
WCI - Wind Chill Index E13G22 Wind - East Wind 13 mph/Gusts of 22 mph

Trending Headlines

Trending Entertainment Headlines

Oak Lodge Radar Loop

Use the map search tool if you want to place a location marker on the radar map...

Oak Lodge Quick Facts

National Two Day Weather Forecast


E-mail the Oak Lodge Weather Forecast

Voice your opinion or tell us about page issues...